"Pseudo-MPEC" for P118fWU

Created 2020 Oct 23 16:07:38 UT using Find_Orb

Click here for an explanation of pseudo-MPECs

 
 Astrometry: 
     P118fWU  C2020 10 17_C#qp!U(2Astrometry8?Nr\eE+V$?ZRVlJOARQ9Oredacted;T1F51
     P118fWU  C2020 10 17ypfTRyFLMr.l=mu3](CORLK-XF.V1-xYQb+X5m$Ra(N=0KGxrI0tF51
     P118fWU  C2020 10 17J*[03vCd8clickNvMv7[b?xrjy4Bq8SEbK)C+:1']O@fhereLmLMF51
     P118fWU ^C2020 10 19.37602902 13 26.236-30 22 56.26   ~AJIq 22.11GVNEOCP568
     P118fWU ^C2020 10 19.37697802 13 26.089-30 22 54.93   ~AJIq 22.15GVNEOCP568
     P118fWU ^C2020 10 19.37792702 13 25.934-30 22 53.50   ~AJIq 22.06GVNEOCP568
     P118fWU |C2020 10 23Sa5L:a9P91hl0P=:MI.8*Eh$1:r'@y4(i`BPW[ZpFHb1RY%\3rAX807
     P118fWU |C2020 10 23`EDq%uq:#:yD14%'for[MCFZWK`9^X4psZ:sQ@n4KphJ;_@'tG%t807
     P118fWU |C2020 10 23'\EAO]TdSMxHOBI,VNDexplanationy=x87f9_`tu+pJh$hu+fC+807

Station data:
(568) Mauna Kea  (N19.826116 W155.472200)  US/Hawaii.
(807) Cerro Tololo Observatory, La Serena  (S30.169136 W70.805900)  Chile.
(F51) Pan-STARRS 1, Haleakala  (N20.707235 W156.255910)  US/Hawaii.
   Observers N. Primak, A. Schultz, S. Watters, J. Thiel, T. Goggia. Measurer
   PS1 Science Consortium. 1.8-m Ritchey-Chrétien + CCD.

Orbital elements:  P118fWU
   Perihelion 2020 Aug 13.341607 +/- 1.31 TT =  8:11:54 (JD 2459074.841607)
Epoch 2020 Oct 23.0 TT = JDT 2459145.5   Earth MOID: 0.5466   Ma: 0.0698
M  33.91474952 +/- 0.7              (J2000 ecliptic)          AutoNEOCP
n   0.47998189 +/- 0.00244          Peri.  285.55862 +/- 0.9
a   1.61554655 +/- 0.00548          Node    56.07864 +/- 0.12
e   0.1021708 +/- 0.000901          Incl.   26.23991 +/- 0.14
P   2.05/750.01d           H 21.0   G  0.15   U  8.7  
q 1.45048484 +/- 0.00354    Q 1.78060826 +/- 0.00749
From 9 observations 2020 Oct. 17-23; mean residual 0".12
Residuals in arcseconds: 
201017 F51  .04-  .06+    201019 568  .06-  .02+    201023 807  .22+  .05+    
201017 F51  .11+  .03-    201019 568  .03+  .03-    201023 807  .13+  .14-    
201017 F51  .08-  .03-    201019 568  .02+  .02+    201023 807  .35-  .08+    

Ephemerides (geocentric):
Date (UTC) HH   RA              Dec         delta   r     elong  mag " sig PA
---- -- -- --  -------------   -----------  ------ ------ -----  --- ---- ---
2020 10 23 16  02 02 21.541   -28 28 00.95  .57916 1.4852 139.9 21.9 .191  43
2020 10 23 17  02 02 15.178   -28 26 48.75  .57917 1.4852 139.9 21.9 .203  44
2020 10 23 18  02 02 08.817   -28 25 36.45  .57919 1.4852 139.9 21.9 .216  44
2020 10 23 19  02 02 02.459   -28 24 24.06  .57920 1.4853 139.9 21.9 .228  45
2020 10 23 20  02 01 56.104   -28 23 11.56  .57921 1.4853 139.9 21.9 .241  45
2020 10 23 21  02 01 49.750   -28 21 58.97  .57922 1.4854 139.9 21.9 .254  45
2020 10 23 22  02 01 43.399   -28 20 46.27  .57924 1.4854 139.9 21.9 .267  46
2020 10 23 23  02 01 37.051   -28 19 33.48  .57925 1.4854 139.9 21.9 .281  46
2020 10 24 00  02 01 30.705   -28 18 20.59  .57927 1.4855 139.9 21.9 .294  46
2020 10 24 01  02 01 24.362   -28 17 07.60  .57928 1.4855 139.9 21.9 .308  46
2020 10 24 02  02 01 18.021   -28 15 54.52  .57930 1.4855 139.9 21.9 .322  47
2020 10 24 03  02 01 11.683   -28 14 41.33  .57931 1.4856 139.9 21.9 .336  47
2020 10 24 04  02 01 05.347   -28 13 28.05  .57933 1.4856 140.0 21.9 .350  47
2020 10 24 05  02 00 59.014   -28 12 14.67  .57934 1.4857 140.0 21.9 .365  47
2020 10 24 06  02 00 52.683   -28 11 01.20  .57936 1.4857 140.0 21.9 .379  48
2020 10 24 07  02 00 46.355   -28 09 47.62  .57938 1.4857 140.0 21.9 .394  48
2020 10 24 08  02 00 40.030   -28 08 33.95  .57939 1.4858 140.0 21.9 .409  48
2020 10 24 09  02 00 33.708   -28 07 20.18  .57941 1.4858 140.0 21.9 .424  48
2020 10 24 10  02 00 27.388   -28 06 06.32  .57943 1.4859 140.0 21.9 .440  48
2020 10 24 11  02 00 21.070   -28 04 52.35  .57945 1.4859 140.0 21.9 .455  48
2020 10 24 12  02 00 14.756   -28 03 38.29  .57946 1.4859 140.0 21.9 .471  49
2020 10 24 13  02 00 08.444   -28 02 24.14  .57948 1.4860 140.0 21.9 .487  49
2020 10 24 14  02 00 02.135   -28 01 09.89  .57950 1.4860 140.0 21.9 .503  49
2020 10 24 15  01 59 55.829   -27 59 55.54  .57952 1.4861 140.0 21.9 .519  49
2020 10 24 16  01 59 49.525   -27 58 41.09  .57954 1.4861 140.0 21.9 .535  49
2020 10 24 17  01 59 43.225   -27 57 26.55  .57956 1.4861 140.1 21.9 .552  49
2020 10 24 18  01 59 36.927   -27 56 11.92  .57958 1.4862 140.1 21.9 .568  49
2020 10 24 19  01 59 30.632   -27 54 57.18  .57960 1.4862 140.1 21.9 .585  50
2020 10 24 20  01 59 24.340   -27 53 42.36  .57963 1.4862 140.1 21.9 .602  50
2020 10 24 21  01 59 18.051   -27 52 27.43  .57965 1.4863 140.1 21.9 .620  50
2020 10 24 22  01 59 11.764   -27 51 12.41  .57967 1.4863 140.1 21.9 .637  50
2020 10 24 23  01 59 05.481   -27 49 57.30  .57969 1.4864 140.1 21.9 .655  50
2020 10 25 00  01 58 59.200   -27 48 42.09  .57971 1.4864 140.1 21.9 .673  50
2020 10 25 01  01 58 52.923   -27 47 26.78  .57974 1.4864 140.1 21.9 .691  50
2020 10 25 02  01 58 46.648   -27 46 11.38  .57976 1.4865 140.1 21.9 .709  50
2020 10 25 03  01 58 40.377   -27 44 55.89  .57979 1.4865 140.1 21.9 .727  50
2020 10 25 04  01 58 34.108   -27 43 40.30  .57981 1.4866 140.1 21.9 .745  51
2020 10 25 05  01 58 27.842   -27 42 24.62  .57983 1.4866 140.1 21.9 .764  51
2020 10 25 06  01 58 21.580   -27 41 08.84  .57986 1.4866 140.1 21.9 .783  51
2020 10 25 07  01 58 15.320   -27 39 52.97  .57988 1.4867 140.2 21.9 .802  51
2020 10 25 08  01 58 09.064   -27 38 37.01  .57991 1.4867 140.2 21.9 .821  51
2020 10 25 09  01 58 02.811   -27 37 20.95  .57994 1.4868 140.2 21.9 .841  51
2020 10 25 10  01 57 56.561   -27 36 04.79  .57996 1.4868 140.2 21.9 .860  51
2020 10 25 11  01 57 50.314   -27 34 48.55  .57999 1.4868 140.2 21.9 .880  51
2020 10 25 12  01 57 44.070   -27 33 32.21  .58002 1.4869 140.2 21.9 .900  51
2020 10 25 13  01 57 37.829   -27 32 15.78  .58004 1.4869 140.2 21.9 .920  51
2020 10 25 14  01 57 31.591   -27 30 59.25  .58007 1.4870 140.2 21.9 .940  52
2020 10 25 15  01 57 25.357   -27 29 42.63  .58010 1.4870 140.2 21.9 .961  52